{"data":{"norad_id":29506,"epoch":"2026-09-19T21:56:06.900000Z","epoch_age_seconds":65050,"freshness":"FRESH","line1":"1 29506U 06046B   26262.91396875  .00000337  00000+0  30672-4 0  9998","line2":"2 29506  97.6977 291.3152 0015975 111.0056 249.2880 15.01482247 84956","mean_motion":15.01482247,"eccentricity":0.0015975,"inclination_deg":97.6977,"raan_deg":291.3152,"arg_perigee_deg":111.0056,"mean_anomaly_deg":249.288,"bstar":3.0672e-5,"rev_number":8495,"period_min":95.905229840523,"perigee_km":551.23749767359,"apogee_km":573.41227339788,"semimajor_km":6940.4618855357,"source":"CELESTRAK","updated_at":"2026-09-20T09:00:47.143091Z"}}